EW7239 Weather Reports


time (UTC)temp
C
wind
direction
speed
KPH
gust
KPH
rain 1hr
cm
rain 24hr
cm
rain mn
cm
humidity
%
barometer
mb
20260505001817 18 193 12.9 24.1 0.00 0.00 0.00 56 1014.7
20260505001317 17 220 14.5 27.4 0.00 0.00 0.00 56 1014.7
20260505000817 17 231 14.5 32.2 0.00 0.00 0.00 55 1014.6
20260505000318 17 218 14.5 32.2 0.00 0.00 0.00 55 1014.6
20260504235818 18 234 14.5 30.6 0.00 0.00 0.00 55 1014.6
20260504235316 18 204 12.9 24.1 0.00 0.00 0.00 54 1014.5
20260504234815 18 203 12.9 24.1 0.00 0.00 0.00 53 1014.5
20260504234316 18 208 12.9 22.5 0.00 0.00 0.00 53 1014.4
20260504233809 18 205 14.5 27.4 0.00 0.00 0.00 54 1014.3
20260504233310 18 212 14.5 27.4 0.00 0.00 0.00 53 1014.2
20260504232810 18 232 14.5 29.0 0.00 0.00 0.00 53 1014.2
20260504232310 18 228 14.5 29.0 0.00 0.00 0.00 53 1014.3
20260504231807 18 224 16.1 38.6 0.00 0.00 0.00 52 1014.3
20260504231307 19 221 16.1 38.6 0.00 0.00 0.00 53 1014.1
20260504230533 19 218 12.9 24.1 0.00 0.00 0.00 53 1014.2
20260504225759 19 223 12.9 22.5 0.00 0.00 0.00 54 1014.2
20260504225531 19 221 12.9 25.7 0.00 0.00 0.00 54 1014.3
20260504224800 19 229 14.5 29.0 0.00 0.00 0.00 54 1014.3
20260504224532 18 209 14.5 29.0 0.00 0.00 0.00 54 1014.4
20260504223800 18 207 11.3 24.1 0.00 0.00 0.00 53 1014.4
20260504223300 19 235 9.7 17.7 0.00 0.00 0.00 52 1014.4
20260504222759 18 229 11.3 17.7 0.00 0.00 0.00 52 1014.5
20260504222300 19 211 11.3 17.7 0.00 0.00 0.00 50 1014.6
20260504222028 19 215 11.3 20.9 0.00 0.00 0.00 49 1014.6
20260504221256 19 235 11.3 20.9 0.00 0.00 0.00 50 1014.6
20260504220756 19 219 11.3 17.7 0.00 0.00 0.00 49 1014.7
20260504220253 19 221 9.7 17.7 0.00 0.00 0.00 49 1014.7
20260504215754 19 217 8.0 17.7 0.00 0.00 0.00 50 1014.8
20260504215254 19 209 9.7 19.3 0.00 0.00 0.00 49 1014.8
20260504214747 19 222 9.7 19.3 0.00 0.00 0.00 49 1014.9
20260504214248 19 252 9.7 19.3 0.00 0.00 0.00 49 1014.9
20260504213747 20 221 12.9 24.1 0.00 0.00 0.00 48 1015.1
20260504213248 20 238 11.3 24.1 0.00 0.00 0.00 49 1015.1
20260504212748 19 216 9.7 24.1 0.00 0.00 0.00 50 1015.2
20260504212241 19 239 9.7 24.1 0.00 0.00 0.00 50 1015.3
20260504211743 19 210 8.0 17.7 0.00 0.00 0.00 51 1015.3
20260504211241 19 215 8.0 17.7 0.00 0.00 0.00 51 1015.3
20260504210742 19 210 9.7 24.1 0.00 0.00 0.00 51 1015.3
20260504210242 19 193 11.3 24.1 0.00 0.00 0.00 50 1015.3
20260504205738 19 190 9.7 22.5 0.00 0.00 0.00 49 1015.2
20260504205237 20 194 9.7 20.9 0.00 0.00 0.00 48 1015.3
20260504204737 20 229 11.3 20.9 0.00 0.00 0.00 48 1015.5
20260504204237 20 209 11.3 19.3 0.00 0.00 0.00 50 1015.4
20260504203737 19 205 11.3 19.3 0.00 0.00 0.00 49 1015.5
20260504203238 19 215 11.3 22.5 0.00 0.00 0.00 52 1015.5
20260504202735 18 179 12.9 22.5 0.00 0.00 0.00 51 1015.7
20260504202507 18 223 12.9 22.5 0.00 0.00 0.00 51 1015.8
20260504201736 18 211 12.9 22.5 0.00 0.00 0.00 50 1015.8
20260504201234 18 180 11.3 25.7 0.00 0.00 0.00 50 1015.7
20260504200731 18 200 12.9 25.7 0.00 0.00 0.00 49 1015.6
20260504200232 18 205 12.9 24.1 0.00 0.00 0.00 48 1015.8
20260504195728 18 243 12.9 22.5 0.00 0.00 0.00 47 1015.8
20260504195459 19 232 11.3 22.5 0.00 0.00 0.00 46 1015.8
20260504194727 19 168 9.7 20.9 0.00 0.00 0.00 46 1015.8
20260504194227 19 222 9.7 19.3 0.00 0.00 0.00 46 1015.7
20260504193727 18 225 9.7 16.1 0.00 0.00 0.00 48 1015.8
20260504193225 18 220 9.7 16.1 0.00 0.00 0.00 49 1016.0
20260504192957 19 222 8.0 16.1 0.00 0.00 0.00 48 1015.9
20260504192224 19 221 11.3 22.5 0.00 0.00 0.00 49 1015.8
20260504191723 19 211 11.3 22.5 0.00 0.00 0.00 48 1015.8
20260504191223 19 228 9.7 20.9 0.00 0.00 0.00 50 1015.8
20260504190725 19 212 8.0 19.3 0.00 0.00 0.00 50 1015.9
20260504190223 18 236 9.7 19.3 0.00 0.00 0.00 51 1015.9
20260504185723 18 242 11.3 19.3 0.00 0.00 0.00 50 1015.9
20260504185456 19 218 11.3 22.5 0.00 0.00 0.00 49 1015.8
20260504184954 19 217 11.3 22.5 0.00 0.00 0.00 50 1015.9
20260504184224 19 222 9.7 20.9 0.00 0.00 0.00 49 1016.0
20260504183719 18 217 8.0 17.7 0.00 0.00 0.00 51 1015.9
20260504183220 18 209 8.0 17.7 0.00 0.00 0.00 52 1015.8
20260504182718 18 221 9.7 17.7 0.00 0.00 0.00 51 1016.0
20260504182218 18 227 8.0 14.5 0.00 0.00 0.00 52 1015.9
20260504181718 18 255 9.7 19.3 0.00 0.00 0.00 52 1016.1
20260504181216 18 225 9.7 19.3 0.00 0.00 0.00 52 1016.2
20260504180948 18 223 8.0 19.3 0.00 0.00 0.00 53 1016.0
20260504180218 18 231 8.0 19.3 0.00 0.00 0.00 54 1016.0
20260504175715 18 212 8.0 19.3 0.00 0.00 0.00 55 1016.0
20260504175215 17 220 8.0 19.3 0.00 0.00 0.00 56 1016.0
20260504174947 17 209 9.7 19.3 0.00 0.00 0.00 58 1016.1
20260504174216 17 205 11.3 20.9 0.00 0.00 0.00 58 1016.1
20260504173715 17 232 9.7 20.9 0.00 0.00 0.00 59 1016.1
20260504173216 17 207 8.0 16.1 0.00 0.00 0.00 59 1016.0
20260504172716 17 224 8.0 17.7 0.00 0.00 0.00 60 1016.0
20260504172216 17 224 9.7 17.7 0.00 0.00 0.00 60 1015.9
20260504171944 17 229 8.0 16.1 0.00 0.00 0.00 60 1015.8
20260504171208 17 222 6.4 12.9 0.00 0.00 0.00 60 1015.9
20260504170709 17 205 6.4 14.5 0.00 0.00 0.00 61 1016.0
20260504170209 16 222 8.0 17.7 0.00 0.00 0.00 62 1015.8
20260504160203 15 221 4.8 9.7 0.00 0.00 0.00 68 1015.7
20260504150657 13 227 4.8 8.0 0.00 0.00 0.00 76 1015.6
20260504150427 13 228 4.8 12.9 0.00 0.00 0.00 76 1015.5
20260504140648 13 232 3.2 11.3 0.00 0.00 0.00 79 1015.1
20260504140144 13 232 3.2 11.3 0.00 0.00 0.00 79 1015.3
20260504130635 12 232 3.2 9.7 0.00 0.00 0.00 79 1015.4
20260504130136 12 232 3.2 9.7 0.00 0.00 0.00 79 1015.3
20260504120134 12 232 1.6 6.4 0.00 0.00 0.00 78 1014.9
20260504110628 13 232 3.2 6.4 0.00 0.00 0.00 79 1014.8
20260504110357 13 232 3.2 6.4 0.00 0.00 0.00 78 1014.9
20260504100615 13 232 4.8 11.3 0.00 0.00 0.00 76 1014.5
20260504100116 13 232 4.8 11.3 0.00 0.00 0.00 76 1014.4
20260504081830 14 236 4.8 11.3 0.00 0.00 0.00 75 1015.8
20260504081100 14 235 6.4 12.9 0.00 0.00 0.00 75 1015.9
20260504080559 14 235 6.4 12.9 0.00 0.00 0.00 75 1016.0
20260504050535 15 219 9.7 16.1 0.00 0.00 0.00 70 1014.9
20260504045534 15 222 9.7 17.7 0.00 0.00 0.00 70 1015.0
20260504045033 15 223 9.7 16.1 0.00 0.00 0.00 69 1014.9
20260504044533 15 225 11.3 16.1 0.00 0.00 0.00 69 1014.9
20260504044033 15 218 9.7 16.1 0.00 0.00 0.00 69 1015.1
20260504043535 15 221 8.0 14.5 0.00 0.00 0.00 68 1014.9
20260504043034 15 223 9.7 19.3 0.00 0.00 0.00 68 1014.9
20260504042535 15 223 9.7 19.3 0.00 0.00 0.00 68 1014.8
20260504042034 15 227 9.7 16.1 0.00 0.00 0.00 67 1014.9
20260504041531 15 215 9.7 16.1 0.00 0.00 0.00 67 1014.6
20260504041032 15 228 8.0 19.3 0.00 0.00 0.00 66 1014.7
20260504040529 15 211 9.7 19.3 0.00 0.00 0.00 66 1014.7
20260504040031 15 220 9.7 17.7 0.00 0.00 0.00 66 1014.8
20260504035527 15 210 11.3 19.3 0.00 0.00 0.00 66 1014.7
20260504035029 15 212 11.3 19.3 0.00 0.00 0.00 66 1014.6
20260504034527 15 219 9.7 17.7 0.00 0.00 0.00 66 1014.6
20260504034028 16 219 9.7 19.3 0.00 0.00 0.00 66 1014.5
20260504033529 16 224 9.7 22.5 0.00 0.00 0.00 66 1014.4
20260504033029 16 225 11.3 24.1 0.00 0.00 0.00 66 1014.4
20260504032529 16 225 11.3 24.1 0.00 0.00 0.00 66 1014.3
20260504032258 16 225 11.3 20.9 0.00 0.00 0.00 66 1014.2
20260504031755 16 215 12.9 20.9 0.00 0.00 0.00 66 1014.1
20260504031023 16 212 12.9 19.3 0.00 0.00 0.00 66 1014.1
20260504030523 16 224 12.9 20.9 0.00 0.00 0.00 66 1014.1
20260504030020 16 227 12.9 24.1 0.00 0.00 0.00 66 1013.9
20260504025520 16 210 12.9 24.1 0.00 0.00 0.00 65 1013.8
20260504024520 16 205 14.5 27.4 0.00 0.00 0.00 65 1013.8
20260504024020 16 218 12.9 27.4 0.00 0.00 0.00 64 1013.8
20260504023514 16 211 11.3 20.9 0.00 0.00 0.00 63 1013.6
20260504023245 16 232 12.9 22.5 0.00 0.00 0.00 63 1013.5
20260504022745 16 220 14.5 22.5 0.00 0.00 0.00 62 1013.5
20260504022011 17 221 14.5 22.5 0.00 0.00 0.00 62 1013.2
20260504021511 17 213 12.9 22.5 0.00 0.00 0.00 62 1013.1
20260504021011 17 229 12.9 22.5 0.00 0.00 0.00 61 1013.1
20260504020743 17 219 12.9 22.5 0.00 0.00 0.00 61 1013.0
20260504020008 17 227 14.5 25.7 0.00 0.00 0.00 61 1012.9
20260504015508 17 231 12.9 25.7 0.00 0.00 0.00 60 1013.0
20260504015007 17 219 12.9 24.1 0.00 0.00 0.00 59 1012.9
20260504014509 18 215 12.9 24.1 0.00 0.00 0.00 59 1012.7
20260504014001 18 221 12.9 25.7 0.00 0.00 0.00 58 1012.7
20260504013501 18 223 12.9 25.7 0.00 0.00 0.00 58 1012.8
20260504012959 18 211 12.9 24.1 0.00 0.00 0.00 57 1012.6
20260504012501 18 215 11.3 20.9 0.00 0.00 0.00 57 1012.6
20260504012001 18 219 11.3 20.9 0.00 0.00 0.00 57 1012.6
20260504011501 18 227 12.9 22.5 0.00 0.00 0.00 57 1012.5
20260504011000 18 227 12.9 22.5 0.00 0.00 0.00 57 1012.5
20260504010500 18 218 12.9 22.5 0.00 0.00 0.00 57 1012.5
20260504005957 19 217 11.3 22.5 0.00 0.00 0.00 56 1012.3
20260504005456 19 227 11.3 22.5 0.00 0.00 0.00 56 1012.5
20260504004957 19 219 12.9 19.3 0.00 0.00 0.00 55 1012.3
20260504004453 19 222 12.9 19.3 0.00 0.00 0.00 55 1012.3
20260504003953 20 232 11.3 19.3 0.00 0.00 0.00 54 1012.2
20260504003452 20 214 12.9 27.4 0.00 0.00 0.00 54 1012.3
20260504002952 20 222 14.5 27.4 0.00 0.00 0.00 54 1012.3
20260504002448 20 223 12.9 20.9 0.00 0.00 0.00 54 1012.1